Regional Weather Roundup
Issued by NWS Upton, NY

Current Version | Previous Version | Graphics & Text | Print | Product List | Glossary Off
Versions: 1 2 3 4 5 6 7 8 9 10 11 12 13 14 15 16 17 18 19 20 21 22 23 24 25 26 27 28 29 30 31 32 33 34 35 36 37 38 39 40 41 42 43 44 45 46 47 48 49 50

000
ASUS41 KOKX 230508
RWROKX

REGIONAL WEATHER ROUNDUP
NATIONAL WEATHER SERVICE NEW YORK NY
1200 AM EST THU FEB 23 2017

NOTE: "FAIR" INDICATES FEW OR NO CLOUDS BELOW 12,000 FEET WITH NO
SIGNIFICANT WEATHER AND/OR OBSTRUCTIONS TO VISIBILITY.

NYZ071-072-176-178-NJZ106-104-230600-
NEW YORK CITY METRO AREA

CITY           SKY/WX    TMP DP  RH WIND       PRES   REMARKS
Central Park   CLEAR     52  42  69 CALM      29.90F
Wall St Helipt NOT AVBL
LaGuardia APRT PTCLDY    49  43  80 CALM      29.88S
Kennedy INTL   MOCLDY    42  42 100 CALM      29.90F
Breezy Point     N/A     43 N/A N/A MISG        N/A
Newark/Liberty MOCLDY    49  42  77 CALM      29.88F
Teterboro      CLEAR     43  38  82 CALM      29.87F
$$

NYZ177-179-078>081-230600-
LONG ISLAND NEW YORK

CITY           SKY/WX    TMP DP  RH WIND       PRES   REMARKS
Jones Beach      N/A     41 N/A N/A CALM        N/A
Matinecock PT  NOT AVBL
Farmingdale    PTCLDY    43  41  93 CALM      29.90S FOG
MacArthur/ISP  FOG       41  41 100 CALM      29.89S VSB 1/4
Shirley        FOG       41  41 100 S5        29.90F VSB 1/2
Westhampton    FOG       42  41  96 S3        29.91F VSB 1/4
Southampton    NOT AVBL
Bridgehampton  NOT AVBL
East Hampton   FOG       41  41  99 CALM      29.90F VSB 1/4
Montauk        NOT AVBL
$$

NYZ052-065-067-230600-
HUDSON VALLEY

CITY           SKY/WX    TMP DP  RH WIND       PRES   REMARKS
White Plains   CLEAR     39  35  86 CALM      29.87F
Newburgh       PTCLDY    41  37  87 CALM      29.88S
Montgomery     MOCLDY    35  33  92 CALM      29.86F
Poughkeepsie   MOCLDY    36  34  92 NW3       29.87F
Albany         PTCLDY    46  35  65 S5        29.85F
$$

NJZ001-105-106-008-010-013-015-019>022-104-230600-
NEW JERSEY

CITY           SKY/WX    TMP DP  RH WIND       PRES   REMARKS
Newark/Liberty MOCLDY    49  42  77 CALM      29.88F
Teterboro      CLEAR     43  38  82 CALM      29.87F
Caldwell       CLEAR     42  37  82 NW3       29.89F
Somerville     CLEAR     39  36  89 CALM      29.88S
Linden         NOT AVBL
Sussex         CLEAR     35  34  96 CALM      29.88S
Andover          N/A     35  34  96 CALM      29.88S
Trenton        CLOUDY    46  41  82 CALM      29.90S
Millville      CLOUDY   N/A N/A N/A CALM      29.91F HAZE
Atlantic City  CLOUDY    41  39  93 CALM      29.92S
Wrightstown    CLEAR     43  42  94 CALM      29.88S
Toms River     CLOUDY    39  37  93 CALM      29.91F FOG
Belmar         CLEAR     47  44  90 SW7       29.91S
$$

PAZ047>061-062-071-230600-
EASTERN PENNSYLVANIA

CITY           SKY/WX    TMP DP  RH WIND       PRES   REMARKS
Philadelphia   CLOUDY    43  40  89 SW5       29.91F
Allentown      CLEAR     42  36  79 CALM      29.89F
Scranton       CLEAR     45  39  79 CALM      29.87S
$$

CTZ002-004>006-009-010-012-RIZ004-006-007-MAZ004-011-015-230600-
SOUTHERN NEW ENGLAND
 IN CT

CITY           SKY/WX    TMP DP  RH WIND       PRES   REMARKS
Bradley INTL   PTCLDY    41  36  82 S5        29.87F
Hartford       CLEAR     39  35  86 CALM      29.88F
Danbury        NOT AVBL
Wtrbury/Oxford CLEAR     36  30  80 CALM      29.89S
Bridgeport     NOT AVBL
Meriden        CLEAR     36  33  89 CALM      29.89S
New Haven      NOT AVBL
Chester          N/A     39  37  93 MISG      29.88F
Groton         CLEAR     36  35  96 CALM      29.90F FOG
Wilimantic     CLEAR     37  33  85 CALM      29.90F

 IN RI

CITY           SKY/WX    TMP DP  RH WIND       PRES   REMARKS
Providence     PTCLDY    39  35  86 CALM      29.90S
Block Island   NOT AVBL
Westerly       CLEAR     37  32  82 CALM      29.91S
 IN MA

CITY           SKY/WX    TMP DP  RH WIND       PRES   REMARKS
Boston         PTCLDY    41  37  86 S7        29.88S
Worcester      PTCLDY    43  34  70 W10       29.85F
Westfield      PTCLDY    33  31  92 CALM      29.87F
Provincetown   CLEAR     39  37  92 S8        29.91R WCI  33
Nantucket      PTCLDY    40  39  97 SW7       29.91F
$$

ANZ330-335-338-340-345-350-353-355-230600-
COASTAL MARINE OBSERVATIONS


STATION/POSITION TIME  SKY/WX   TEMP    WIND        PRES    VSBY  WAVE
                                AIR SEA DIR/SP/G                  HT/PER
                 (UTC)          (F)     (DEG/KT/KT) (MB)    (MI)  (FT/S)
NY HARB ENTRANCE 0350            44 42  210/  6/  6 1012.5          2/ 9
20 S FIRE ISLAND 0450            44 43  220/  8/  8 1012.4          3/ 8
GREAT SOUTH BAY  NOT AVBL
23 SSW MONTAUK P 0350            45 45              1013.4          3/11
15 E BARNEGAT LI 0430               42                N/A           3/ 9
HUDSON CANYON    0350               49              1013.5          3/10
KINGS POINT      0448               39                N/A
EXECUTION ROCKS  NOT AVBL
CENTRAL LI SOUND 0430            42     160/  2/  4   N/A           0
EASTERN LI SOUND NOT AVBL
ROBBINS REEF     0448            50     270/  2/  3 1012.3
$$


>>>>>>>>>>>>>>>>>>>>>>>>>>>> KEY <<<<<<<<<<<<<<<<<<<<<<<<<<<
>                                                          <
>     SKY/WX - Sky Condition/Present Weather               <
>     TMP    - Temperature in Fahrenheit                   <
>     DP     - Dew Point in Fahrenheit                     <
>     RH     - Relative Humidity in Percent                <
>     WIND   - Direction (from) and Speed in MPH           <
>     PRES   - Mean Sea Level Pressure (inches of Hg)      <
>     WCI    - Wind Chill Index                            <
>     VSB    - VISIBILITY IN MILES                         <
>     HX     - HEAT INDEX                                  <
>     TC     - TEMPERATURE IN CELSIUS                      <
>     VRB    - VARIABLE WIND DIRECTION                     <
>                                                          <
>>>>>>>>>>>>>>>>>>>>>>>>>>>> KEY <<<<<<<<<<<<<<<<<<<<<<<<<<<



USA.gov is the U.S. government's official web portal to all federal, state and local government web resources and services.